2023/02/16 00:00:00,108.1,-5.5
2023/02/16 00:10:00,108.0,-5.4
2023/02/16 00:20:00,107.9,-5.4
2023/02/16 00:30:00,107.8,-5.3
2023/02/16 00:40:00,107.8,-5.2
2023/02/16 00:50:00,107.7,-5.3
2023/02/16 01:00:00,107.6,-5.2
2023/02/16 01:10:00,107.5,-5.3
2023/02/16 01:20:00,107.3,-5.2
2023/02/16 01:30:00,107.3,-5.3
2023/02/16 01:40:00,107.2,-5.4
2023/02/16 01:50:00,107.1,-5.1
2023/02/16 02:00:00,107.0,-5.2
2023/02/16 02:10:00,106.9,-5.2
2023/02/16 02:20:00,106.8,-5.2
2023/02/16 02:30:00,106.8,-5.2
2023/02/16 02:40:00,106.8,-5.4
2023/02/16 02:50:00,106.7,-5.0
2023/02/16 03:00:00,106.5,-5.1
2023/02/16 03:10:00,106.5,-5.0
2023/02/16 03:20:00,106.4,-5.1
2023/02/16 03:30:00,106.5,-5.2
2023/02/16 03:40:00,106.4,-5.0
2023/02/16 03:50:00,106.3,-5.0
2023/02/16 04:00:00,106.2,-4.8
2023/02/16 04:10:00,106.2,-4.9
2023/02/16 04:20:00,106.1,-5.1
2023/02/16 04:30:00,106.0,-5.0
2023/02/16 04:40:00,106.0,-5.1
2023/02/16 04:50:00,105.9,-5.2
2023/02/16 05:00:00,105.9,-5.0
2023/02/16 05:10:00,105.8,-5.2
2023/02/16 05:20:00,105.8,-5.0
2023/02/16 05:30:00,105.7,-5.2
2023/02/16 05:40:00,105.7,-5.1
2023/02/16 05:50:00,105.7,-5.2
2023/02/16 06:00:00,105.6,-5.2
2023/02/16 06:10:00,105.5,-5.3
2023/02/16 06:20:00,105.5,-5.1
2023/02/16 06:30:00,105.4,-5.2
2023/02/16 06:40:00,105.4,-5.4
2023/02/16 06:50:00,105.3,-5.2
2023/02/16 07:00:00,105.2,-5.2
2023/02/16 07:10:00,105.2,-5.0
2023/02/16 07:20:00,105.1,-4.9
2023/02/16 07:30:00,105.1,-4.9
2023/02/16 07:40:00,105.1,-4.6
2023/02/16 07:50:00,105.0,-4.6
2023/02/16 08:00:00,105.0,-4.4
2023/02/16 08:10:00,104.9,-4.2
2023/02/16 08:20:00,104.9,-4.3
2023/02/16 08:30:00,104.9,-4.0
2023/02/16 08:40:00,104.8,-3.8
2023/02/16 08:50:00,104.8,-3.6
2023/02/16 09:00:00,104.7,-3.8
2023/02/16 09:10:00,104.7,-2.8
2023/02/16 09:20:00,104.6,-2.8
2023/02/16 09:30:00,104.5,-2.5
2023/02/16 09:40:00,104.5,-2.4
2023/02/16 09:50:00,104.4,-1.7
2023/02/16 10:00:00,104.4,-1.4
2023/02/16 10:10:00,104.4,-1.2
2023/02/16 10:20:00,104.2,-0.4
2023/02/16 10:30:00,104.2,-0.8
2023/02/16 10:40:00,104.0,-0.9
2023/02/16 10:50:00,104.0,-0.3
2023/02/16 11:00:00,103.9, 0.6
2023/02/16 11:10:00,103.9, 0.3
2023/02/16 11:20:00,103.9, 0.4
2023/02/16 11:30:00,103.9, 0.8
2023/02/16 11:40:00,103.8, 0.3
2023/02/16 11:50:00,103.8, 0.9
2023/02/16 12:00:00,103.7, 0.6
2023/02/16 12:10:00,103.8, 1.3
2023/02/16 12:20:00,103.8, 1.8
2023/02/16 12:30:00,103.6, 1.6
2023/02/16 12:40:00,103.5, 1.4
2023/02/16 12:50:00,103.4, 0.9
2023/02/16 13:00:00,103.4, 1.3
2023/02/16 13:10:00,103.3, 1.1
2023/02/16 13:20:00,103.2, 1.1
2023/02/16 13:30:00,103.1, 0.9
2023/02/16 13:40:00,103.0, 0.6
2023/02/16 13:50:00,102.8, 0.4
2023/02/16 14:00:00,102.8, 0.7
2023/02/16 14:10:00,102.7, 0.4
2023/02/16 14:20:00,102.6, 0.6
2023/02/16 14:30:00,102.5, 0.5
2023/02/16 14:40:00,102.5, 0.8
2023/02/16 14:50:00,102.5, 1.5
2023/02/16 15:00:00,102.4, 1.5
2023/02/16 15:10:00,102.4, 0.5
2023/02/16 15:20:00,102.3, 0.0
2023/02/16 15:30:00,102.4,-0.3
2023/02/16 15:40:00,102.4, 0.4
2023/02/16 15:50:00,102.4, 0.1
2023/02/16 16:00:00,102.2,-0.1
2023/02/16 16:10:00,102.2,-0.6
2023/02/16 16:20:00,102.2,-0.4
2023/02/16 16:30:00,102.1,-0.7
2023/02/16 16:40:00,102.0,-0.7
2023/02/16 16:50:00,101.9,-1.2
2023/02/16 17:00:00,101.8,-1.4
2023/02/16 17:10:00,101.7,-1.8
2023/02/16 17:20:00,101.5,-2.1
2023/02/16 17:30:00,101.4,-2.2
2023/02/16 17:40:00,101.3,-2.4
2023/02/16 17:50:00,101.2,-2.8
2023/02/16 18:00:00,101.2,-2.9
2023/02/16 18:10:00,101.1,-3.3
2023/02/16 18:20:00,101.0,-3.1
2023/02/16 18:30:00,101.0,-3.1
2023/02/16 18:40:00,101.0,-3.3
2023/02/16 18:50:00,101.0,-3.5
2023/02/16 19:00:00,100.9,-3.9
2023/02/16 19:10:00,100.9,-4.8
2023/02/16 19:20:00,100.9,-5.6
2023/02/16 19:30:00,100.8,-5.8
2023/02/16 19:40:00,100.8,-5.9
2023/02/16 19:50:00,100.7,-6.1
2023/02/16 20:00:00,100.7,-6.9
2023/02/16 20:10:00,100.6,-6.1
2023/02/16 20:20:00,100.5,-6.1
2023/02/16 20:30:00,100.5,-5.8
2023/02/16 20:40:00,100.5,-5.2
2023/02/16 20:50:00,100.6,-5.2
2023/02/16 21:00:00,100.5,-5.1
2023/02/16 21:10:00,100.5,-5.1
2023/02/16 21:20:00,100.5,-5.1
2023/02/16 21:30:00,100.5,-5.1
2023/02/16 21:40:00,100.5,-5.1
2023/02/16 21:50:00,100.4,-5.3
2023/02/16 22:00:00,100.4,-5.2
2023/02/16 22:10:00,100.3,-5.0
2023/02/16 22:20:00,100.3,-5.3
2023/02/16 22:30:00,100.2,-5.1
2023/02/16 22:40:00,100.2,-5.0
2023/02/16 22:50:00,100.1,-5.3
2023/02/16 23:00:00,100.1,-5.2
2023/02/16 23:10:00,100.0,-5.2
2023/02/16 23:20:00,100.0,-5.7
2023/02/16 23:30:00,100.0,-5.4
2023/02/16 23:40:00,99.9,-5.6
2023/02/16 23:50:00,99.9,-5.6
